Wetbulb
30.32 31.35 32.26 32.94 33.44 33.95 34.24 34.56 34.26 34.35 34.48 34.32 34.12 34.05 34.10 34.01 34.09 34.51 34.74 34.42 34.72 35.10 35.57 35.57 36.02 35.82 35.36 35.11 34.86 34.83 34.76 34.76 34.55 34.41 34.20 34.16 34.80 35.05 35.13 35.28 35.10 35.04 35.09 35.10 34.73 34.59 34.46 34.04 34.48 35.38 35.97 35.37 35.26 34.87 34.66 34.66 34.40 34.51 34.99 35.58 35.92 35.73 35.39 35.23 35.33 35.53 35.95 36.39 37.39
31.77 31.96 32.17 32.44 32.82 33.36 33.90 34.02 34.31 34.39 34.35 34.53 34.41 34.20 33.88 33.94 34.24 34.39 34.31 33.93 34.80 35.20 35.43 35.89 35.39 34.99 34.72 34.69 34.40 34.17 34.15 34.15 33.99 33.93 33.82 33.72 34.28 34.72 34.94 35.23 35.01 35.09 35.14 34.99 34.48 34.56 34.54 33.58 34.07 35.01 35.59 35.27 35.31 34.99 34.76 34.82 34.77 34.62 34.35 34.22 34.83 35.05 35.07 34.85 34.69 34.81 35.23 35.70 36.43
32.23 32.09 32.02 32.31 32.54 33.07 33.73 34.05 34.10 33.48 32.99 33.44 34.01 34.12 33.95 34.04 34.39 34.72 34.98 35.13 34.60 34.38 34.59 35.59 35.14 34.82 34.63 34.42 34.28 34.09 33.93 33.94 33.67 33.69 33.79 34.00 34.11 34.16 34.48 35.03 34.80 34.65 34.65 34.66 34.46 34.61 34.56 33.66 34.14 34.75 35.34 35.65 35.19 35.09 34.88 34.44 34.65 34.48 34.05 33.64 34.39 34.93 35.31 35.60 34.74 34.75 35.07 35.70 35.76
31.84 32.09 32.45 32.61 32.56 32.30 32.57 33.64 33.29 32.90 32.97 33.96 33.83 33.70 33.77 34.20 34.55 34.91 34.83 34.22 34.05 34.20 34.46 34.76 34.73 34.76 34.58 34.20 33.99 34.03 33.94 33.78 33.36 33.31 33.54 33.75 33.92 34.03 34.16 34.59 34.69 34.63 34.43 34.29 33.88 33.67 33.47 33.15 34.21 34.69 34.75 34.13 33.86 34.29 34.98 35.52 34.82 34.64 34.51 33.88 34.40 34.62 35.00 35.58 35.17 35.33 35.62 35.51 35.05
31.96 32.23 32.54 32.92 32.64 32.47 32.45 32.52 32.52 32.82 33.24 33.83 34.14 34.30 34.35 34.41 34.39 34.24 34.14 34.07 34.49 34.89 34.88 34.07 34.23 34.28 33.96 33.64 33.17 33.12 33.09 32.87 33.10 33.29 33.46 33.63 33.73 34.09 34.22 34.29 34.67 34.91 34.80 34.38 33.67 33.40 33.04 32.34 34.03 34.61 34.36 33.41 34.01 34.43 34.75 34.75 34.70 34.51 34.33 34.54 34.77 35.06 35.09 34.97 35.32 35.47 35.58 35.52 35.05
31.93 32.05 32.21 32.38 32.42 32.33 32.47 32.71 32.68 32.93 33.29 33.55 33.31 33.32 33.68 34.58 34.56 34.45 34.21 34.28 34.34 33.84 33.29 33.04 33.19 33.25 32.97 32.66 32.32 32.29 32.29 32.31 32.82 32.97 33.14 33.28 33.87 34.03 34.00 34.07 34.43 34.65 34.72 34.24 33.58 33.13 32.64 32.02 33.78 34.51 34.45 34.22 33.95 33.63 33.60 33.78 34.27 34.16 34.07 34.52 35.15 34.98 34.63 34.32 34.80 34.90 34.83 34.75 34.42
31.52 31.71 31.85 32.01 32.08 32.18 32.34 32.44 32.71 32.88 32.87 33.00 32.63 32.53 32.77 33.51 33.41 33.06 32.97 33.54 33.68 33.40 33.16 33.26 33.31 33.31 33.09 32.34 32.17 32.13 32.07 32.36 32.56 32.42 32.51 33.26 33.55 33.66 33.79 33.98 33.86 33.74 33.56 33.26 32.69 32.51 32.27 31.34 33.09 33.97 34.24 34.03 34.50 33.75 32.78 32.85 33.59 33.90 34.05 34.33 35.04 34.87 34.34 33.62 33.94 34.26 34.24 33.79 33.53
31.34 31.54 31.70 31.97 31.89 31.84 31.83 32.04 32.27 32.46 32.68 32.92 32.35 32.12 32.00 32.27 32.22 32.41 32.58 32.88 33.09 33.03 33.09 33.42 33.01 32.84 32.61 32.34 32.18 32.06 31.88 31.71 32.19 32.24 32.32 32.83 32.80 32.97 33.03 32.78 32.58 32.35 32.23 31.98 31.64 31.47 31.38 31.55 32.98 33.41 33.52 33.75 34.61 34.05 32.93 32.23 32.65 33.15 33.71 34.07 34.72 34.58 34.22 34.05 33.79 33.79 33.79 33.39 33.48
31.29 31.35 31.44 31.61 31.67 31.68 31.67 31.66 31.64 31.64 31.74 31.63 31.33 31.39 31.58 31.84 31.67 31.74 32.13 32.55 32.83 32.75 32.74 33.06 32.70 32.41 32.25 32.07 32.05 32.03 32.09 32.06 31.99 32.02 32.13 32.06 32.18 32.40 32.49 32.35 31.86 31.71 31.55 31.29 31.08 30.74 30.81 31.94 33.06 33.41 33.55 34.46 34.86 34.39 33.40 32.54 32.45 32.65 33.17 33.81 34.13 34.28 34.36 34.26 33.50 33.31 33.39 33.27 33.33
30.76 30.93 31.00 31.10 31.08 31.16 31.00 30.99 30.97 30.82 30.79 30.88 30.86 30.97 31.20 31.61 31.57 31.54 31.80 32.60 32.47 32.13 31.99 31.98 32.02 32.07 32.14 32.01 32.26 32.47 32.53 32.47 32.30 32.07 31.94 32.12 32.08 32.23 32.22 32.47 32.14 32.00 31.91 31.45 31.43 31.01 30.81 31.77 32.82 33.16 33.19 33.35 33.50 33.42 33.23 32.89 32.80 32.89 33.24 34.20 34.01 33.92 33.84 33.96 33.68 33.28 33.04 33.12 33.22
29.98 30.01 30.18 30.38 30.41 30.38 30.47 30.39 30.81 30.79 30.84 30.94 30.70 30.71 30.86 30.97 30.96 31.20 31.52 31.83 31.61 31.28 31.17 31.62 31.64 31.85 32.01 32.28 32.52 32.52 32.60 32.65 32.53 32.26 32.09 31.91 32.02 32.05 32.24 32.47 32.54 32.51 32.44 32.33 32.14 32.00 32.19 32.59 32.78 32.70 32.72 33.15 32.96 33.05 33.05 32.80 32.89 32.89 33.13 33.88 33.89 33.63 33.42 33.44 33.68 33.58 33.25 32.96 32.77
29.31 29.35 29.42 29.57 29.51 29.72 29.81 29.82 30.38 30.39 30.22 30.14 30.13 30.07 30.21 30.37 30.29 30.53 30.64 30.29 30.23 30.54 30.87 31.21 31.45 31.61 31.82 32.21 32.11 32.15 32.20 32.12 31.91 31.79 31.72 31.85 32.00 32.17 32.37 32.51 32.67 32.86 32.93 33.00 32.89 33.05 33.18 33.09 33.07 32.83 32.52 32.42 33.09 33.38 33.25 32.61 32.45 32.52 32.78 33.13 33.13 33.13 33.04 33.27 33.32 33.38 33.48 33.14 32.71
28.92 28.92 28.94 28.98 28.85 28.90 28.92 29.02 29.36 29.36 29.22 29.14 29.27 29.51 29.69 29.83 29.76 29.69 29.64 29.33 29.58 30.09 30.69 30.80 30.89 31.06 31.22 31.35 31.50 31.63 31.86 31.96 31.72 31.78 31.88 31.98 32.28 32.49 32.68 32.89 33.00 33.23 33.40 33.56 33.53 33.59 33.57 33.38 33.04 32.78 32.61 32.33 32.99 33.24 33.12 32.52 32.28 32.12 32.09 32.23 32.35 32.43 32.57 32.70 32.99 33.12 33.09 32.61 32.56
28.50 28.53 28.52 28.52 28.25 28.20 28.22 28.14 28.60 28.73 28.57 28.28 28.55 28.84 29.08 29.03 29.01 29.01 28.99 29.07 29.15 29.48 29.75 29.97 30.23 30.49 30.74 30.80 30.99 31.12 31.21 31.41 31.41 31.34 31.46 31.78 32.15 32.42 32.54 32.81 32.99 33.25 33.57 33.95 33.86 33.55 33.35 33.28 32.99 32.75 32.54 32.27 32.46 32.58 32.58 32.26 32.11 31.97 31.83 31.67 31.68 31.86 32.05 32.40 32.66 32.66 32.52 32.17 32.05
28.20 28.12 28.06 28.12 27.77 27.79 27.87 27.47 28.12 28.28 28.12 27.74 28.15 28.34 28.43 28.45 28.35 28.33 28.31 28.31 28.41 28.69 28.90 28.98 29.39 29.67 30.07 30.39 30.43 30.52 30.58 30.81 30.77 30.78 30.93 31.03 31.43 31.70 31.97 32.22 32.56 32.82 33.14 33.41 33.49 33.31 33.07 32.88 32.73 32.55 32.45 32.26 32.16 32.03 32.08 32.00 31.85 31.83 31.76 31.69 31.54 31.65 31.71 31.88 32.07 32.09 32.14 31.96 31.81
27.93 27.79 27.71 27.66 27.47 27.44 27.44 27.36 28.10 28.04 27.86 27.67 27.69 27.75 27.78 27.77 27.78 27.73 27.73 27.61 27.88 28.17 28.31 28.16 28.44 28.86 29.40 29.77 29.90 29.90 29.98 30.07 30.10 30.16 30.19 30.33 30.58 30.83 31.08 31.36 31.68 31.93 32.18 32.28 32.54 32.67 32.70 32.75 32.67 32.45 32.20 32.03 31.93 31.87 31.77 31.74 31.67 31.59 31.52 31.51 31.52 31.52 31.61 31.58 31.67 31.76 31.78 31.74 31.53
27.47 27.39 27.36 27.39 27.19 27.03 27.11 27.31 27.69 27.77 27.58 27.28 27.23 27.25 27.25 27.36 27.44 27.48 27.40 27.32 27.57 27.56 27.59 27.50 28.00 28.28 28.50 28.84 29.17 29.25 29.33 29.33 29.33 29.44 29.52 29.66 29.82 29.99 30.24 30.42 30.76 31.00 31.17 31.23 31.26 31.49 31.72 31.97 32.22 32.26 32.15 31.94 31.85 31.74 31.67 31.64 31.58 31.58 31.47 31.49 31.52 31.60 31.60 31.67 31.70 31.60 31.57 31.52 31.39
26.98 26.95 27.03 27.17 26.95 26.84 26.98 26.98 27.23 27.17 27.00 26.67 26.73 26.78 26.95 27.00 26.95 27.08 27.11 27.25 27.17 26.98 26.95 27.12 27.51 27.84 27.89 27.92 28.34 28.58 28.82 28.68 28.76 28.90 29.01 29.14 29.25 29.34 29.42 29.67 29.90 30.15 30.23 30.24 30.30 30.48 30.67 31.07 31.40 31.68 31.91 31.91 31.83 31.83 31.76 31.68 31.66 31.58 31.58 31.64 31.59 31.67 31.74 31.73 31.75 31.73 31.64 31.51 31.36
26.59 26.70 26.86 26.92 26.89 26.89 26.81 26.89 26.81 26.61 26.53 26.42 26.48 26.50 26.51 26.51 26.54 26.57 26.70 26.81 26.95 26.86 26.73 26.85 27.10 27.29 27.48 27.39 27.67 28.03 28.33 28.32 28.19 28.24 28.51 28.65 28.73 28.89 28.98 29.08 29.35 29.52 29.60 29.60 29.72 29.83 30.08 30.42 30.75 31.00 31.26 31.48 31.48 31.56 31.56 31.51 31.43 31.41 31.47 31.47 31.51 31.51 31.64 31.68 31.73 31.80 31.74 31.62 31.55
26.25 26.48 26.67 26.92 26.81 26.81 26.75 26.81 26.50 26.37 26.25 26.42 26.17 26.00 25.95 26.01 26.18 26.21 26.08 26.22 26.62 26.73 26.67 26.59 26.63 26.77 26.95 27.14 27.25 27.50 27.75 28.08 27.91 27.94 28.16 28.52 28.65 28.81 29.03 29.24 29.35 29.59 29.65 29.76 29.73 29.74 29.88 30.13 30.15 30.38 30.57 30.65 30.63 30.66 30.59 30.65 30.74 30.74 30.89 31.06 31.09 31.23 31.25 31.47 31.51 31.50 31.55 31.55 31.55
26.22 26.42 26.67 26.73 26.64 26.56 26.50 26.42 26.26 26.00 25.75 25.75 25.72 25.61 25.63 25.83 25.87 25.85 25.91 26.13 26.46 26.54 26.45 26.28 26.41 26.44 26.60 26.64 26.75 26.89 27.14 27.75 27.78 28.00 28.35 28.77 28.99 29.22 29.57 29.83 29.91 29.97 30.05 30.16 30.08 30.05 30.00 30.00 29.97 30.05 30.17 30.26 30.01 29.96 29.81 29.84 29.82 29.77 29.91 30.24 30.49 30.67 30.75 30.93 31.10 31.15 31.23 31.31 31.35
26.28 26.39 26.48 26.45 26.36 26.25 26.25 26.12 25.84 25.58 25.35 25.29 25.41 25.46 25.58 25.64 25.55 25.67 25.95 26.26 26.29 26.20 26.08 26.11 26.20 26.29 26.34 26.48 26.48 26.59 26.98 27.56 28.00 28.39 28.72 28.92 29.16 29.48 29.74 30.00 30.06 30.01 30.07 30.05 29.83 29.88 29.96 29.83 29.88 29.90 30.01 29.98 29.82 29.72 29.67 29.50 29.48 29.39 29.42 29.42 29.64 29.82 30.06 30.39 30.51 30.68 30.89 31.06 31.24
26.36 26.39 26.39 26.31 26.17 26.09 26.00 25.79 25.34 25.08 24.96 25.01 25.15 25.30 25.46 25.51 25.55 25.66 25.80 25.97 25.97 25.94 26.00 26.18 26.26 26.44 26.52 26.60 26.62 26.79 27.19 27.70 28.16 28.50 28.84 29.14 29.25 29.40 29.60 29.90 29.76 29.66 29.69 29.84 29.99 30.00 29.97 29.91 29.77 29.93 29.97 29.88 29.72 29.67 29.67 29.55 29.41 29.27 29.19 29.16 29.32 29.56 29.81 30.00 30.36 30.59 30.82 31.02 31.34
26.14 26.20 26.39 26.75 26.17 25.72 25.56 25.21 24.96 24.67 24.58 24.63 24.76 24.98 25.13 25.34 25.45 25.56 25.55 25.58 25.72 25.73 25.88 26.35 26.49 26.65 26.59 26.78 27.04 27.38 27.70 27.98 28.23 28.50 28.78 29.26 29.44 29.50 29.52 29.56 29.52 29.66 29.81 30.17 30.68 30.89 30.86 30.42 30.26 30.19 30.17 30.02 29.84 29.75 29.72 29.74 29.60 29.57 29.48 29.48 29.51 29.73 29.98 30.25 30.69 30.93 31.09 31.28 31.66
25.86 25.83 25.94 26.14 25.81 25.47 25.17 24.92 24.54 24.38 24.39 24.53 24.67 24.71 24.89 25.13 25.28 25.30 25.36 25.36 25.47 25.64 25.82 25.91 26.23 26.52 26.85 27.20 27.60 27.98 28.41 28.49 28.51 28.43 28.53 29.05 29.46 29.53 29.58 29.43 29.50 29.85 30.19 30.54 31.55 32.16 32.16 31.67 31.38 31.05 30.83 30.62 30.48 30.40 30.25 30.24 30.19 30.08 29.99 29.98 29.90 29.99 30.15 30.42 31.00 31.35 31.49 31.64 32.05
25.58 25.49 25.52 25.61 25.47 25.16 24.72 24.50 24.34 24.27 24.30 24.45 24.48 24.52 24.66 24.89 25.07 25.13 25.10 25.10 25.30 25.70 25.82 25.82 26.06 26.68 27.29 27.72 28.04 28.30 28.50 28.56 28.57 28.59 28.52 28.77 29.14 29.25 29.26 29.24 29.35 29.67 30.20 30.95 31.55 31.98 32.16 32.44 32.33 31.82 31.24 31.05 30.99 30.82 30.78 30.69 30.82 30.85 30.75 30.53 30.44 30.22 30.16 30.26 30.74 31.26 31.70 32.12 32.61
24.98 24.98 25.01 25.38 25.10 24.76 24.46 24.41 24.39 24.31 24.27 24.22 24.28 24.37 24.48 24.76 25.02 24.98 24.92 25.01 25.27 25.56 25.80 25.95 26.50 26.99 27.48 27.83 27.80 27.87 27.98 28.17 28.39 28.49 28.57 28.62 28.68 28.58 28.66 28.74 29.07 29.43 30.03 30.91 31.24 31.58 31.82 32.18 32.37 32.21 31.85 31.29 31.10 30.93 30.89 30.90 31.20 31.35 31.39 31.08 30.86 30.66 30.42 30.33 30.52 30.81 31.31 31.80 32.51
24.35 24.55 24.67 24.67 24.50 24.50 24.45 24.37 24.18 24.05 24.00 24.04 24.05 24.30 24.53 24.69 24.71 24.68 24.75 25.04 25.30 25.48 25.65 26.06 26.83 27.19 27.35 27.36 27.36 27.35 27.37 27.45 27.79 28.06 28.25 28.44 28.14 27.98 28.12 28.33 28.63 29.18 29.94 30.76 31.05 31.40 31.74 32.01 32.28 32.28 32.02 31.22 30.95 30.77 30.62 30.47 30.59 30.75 31.11 31.36 31.50 31.45 31.35 31.12 31.22 31.24 31.44 31.76 32.32
24.09 24.17 24.18 24.12 24.12 24.33 24.39 24.13 23.92 23.78 23.88 24.00 24.21 24.43 24.60 24.63 24.55 24.60 24.64 24.84 24.86 25.04 25.38 25.94 26.54 26.77 26.87 26.73 26.97 27.04 27.02 26.96 27.46 27.70 27.88 27.87 27.89 27.90 27.96 28.22 28.50 29.00 29.85 30.76 31.03 31.21 31.55 31.82 31.92 32.02 31.95 31.79 30.94 30.43 30.17 29.95 29.93 29.96 30.27 30.60 31.19 31.65 32.10 32.35 32.33 32.33 32.23 32.26 32.39
24.15 23.97 23.80 23.83 24.03 24.09 24.12 23.87 23.79 23.86 24.04 24.30 24.42 24.37 24.29 24.27 24.30 24.30 24.35 24.25 24.25 24.67 25.35 26.06 26.11 26.11 26.03 26.28 26.60 26.68 26.62 26.79 27.11 27.18 27.28 27.26 27.22 27.29 27.56 27.88 28.21 28.90 29.67 30.53 30.73 31.05 31.32 31.51 31.61 31.62 31.79 31.81 31.02 30.35 29.90 29.77 29.61 29.51 29.59 29.75 30.20 30.72 31.43 32.15 32.61 32.82 32.98 32.94 32.94
23.97 23.80 23.62 23.71 23.83 23.83 23.83 23.73 23.82 24.03 24.12 24.32 24.16 24.00 23.93 23.88 23.86 23.87 23.97 23.97 24.17 24.83 25.47 25.97 25.69 25.58 25.75 26.00 26.09 26.06 26.14 26.34 26.48 26.63 26.61 26.49 26.51 26.70 26.89 27.30 27.64 28.33 29.11 30.11 30.43 30.60 30.96 31.08 31.25 31.41 31.43 31.53 30.73 30.07 29.77 29.50 29.44 29.40 29.36 29.41 29.60 29.83 30.27 30.80 31.42 32.05 32.59 32.98 33.07
23.71 23.54 23.51 23.60 23.62 23.63 23.78 23.81 23.91 23.94 23.86 23.84 23.67 23.65 23.55 23.51 23.64 23.80 23.85 23.93 24.38 24.74 25.14 25.14 25.10 25.18 25.22 25.54 25.60 25.54 25.62 25.75 25.80 25.86 26.00 26.15 26.09 26.18 26.43 26.86 27.14 27.74 28.55 29.66 29.92 30.12 30.39 30.66 30.85 31.01 31.12 31.20 30.59 29.98 29.53 29.41 29.41 29.44 29.49 29.44 29.44 29.51 29.67 29.91 30.26 30.84 31.42 32.05 32.50
23.25 23.25 23.39 23.45 23.45 23.63 23.78 23.78 23.79 23.62 23.48 23.31 23.32 23.25 23.21 23.17 23.43 23.60 23.77 23.93 24.32 24.60 24.58 24.66 24.59 24.51 24.63 24.75 24.87 24.92 25.08 25.27 25.49 25.60 25.75 25.92 25.83 25.92 25.94 26.26 26.63 27.45 28.39 29.28 29.58 29.76 30.06 30.40 30.49 30.66 30.76 30.93 30.43 29.97 29.63 29.46 29.43 29.42 29.53 29.62 29.61 29.76 29.83 29.76 30.02 30.25 30.62 31.11 31.64
22.60 22.98 23.45 23.54 23.62 23.62 23.48 23.35 23.14 23.10 22.93 22.79 22.76 22.77 22.73 22.74 22.84 23.01 23.43 23.98 24.41 24.58 24.67 24.67 24.67 24.64 24.64 24.75 24.64 24.63 24.75 25.04 25.21 25.41 25.55 25.58 25.52 25.43 25.49 25.58 26.03 27.11 28.39 28.84 29.08 29.33 29.69 29.94 30.16 30.33 30.43 30.60 30.18 29.85 29.56 29.40 29.38 29.36 29.35 29.54 29.80 29.95 30.09 30.10 30.15 30.26 30.39 30.51 30.97
22.60 22.95 23.28 23.36 23.45 23.36 23.11 22.71 22.53 22.41 22.35 22.19 22.15 22.26 22.34 22.40 22.50 22.77 23.25 23.96 24.38 24.59 24.59 24.71 24.79 24.84 24.89 24.88 24.88 24.76 24.63 24.58 24.82 25.04 25.13 25.32 25.15 24.89 24.81 24.95 25.41 26.59 27.86 28.46 28.73 29.01 29.28 29.60 29.73 29.98 30.09 29.89 29.58 29.31 29.14 29.01 28.95 28.93 29.19 29.28 29.54 29.79 30.03 30.24 30.35 30.41 30.42 30.56 30.68
22.78 22.69 22.54 22.72 22.92 22.87 22.62 22.20 22.02 21.87 21.69 21.59 21.58 21.70 21.86 22.17 22.47 22.90 23.41 23.96 24.33 24.34 24.34 24.39 24.51 24.56 24.50 24.38 24.50 24.55 24.61 24.52 24.52 24.64 24.85 24.99 24.75 24.38 24.20 24.29 24.67 25.86 27.30 28.04 28.39 28.75 29.03 29.25 29.45 29.61 29.72 29.41 28.89 28.77 28.66 28.58 28.67 28.69 28.84 29.00 29.22 29.54 29.96 30.26 30.48 30.66 30.75 30.84 30.81
22.72 22.46 22.28 22.34 22.49 22.41 22.11 21.82 21.54 21.31 21.13 21.04 21.19 21.36 21.63 21.92 22.34 22.92 23.57 24.25 24.25 24.05 23.87 23.96 23.96 24.01 24.03 24.05 24.21 24.33 24.47 24.64 24.52 24.44 24.47 24.65 24.41 24.17 23.91 24.00 24.32 25.15 26.46 27.62 28.21 28.56 28.93 29.21 29.37 29.45 29.38 28.77 28.45 28.32 28.27 28.33 28.30 28.48 28.56 28.67 28.92 29.43 29.90 30.30 30.59 30.79 30.99 30.93 30.97
22.99 22.78 22.51 22.28 22.14 21.96 21.72 21.51 21.07 20.77 20.66 20.81 21.11 21.45 21.72 22.03 22.32 22.91 23.71 24.47 24.13 23.87 23.60 23.66 23.66 23.71 23.88 24.13 24.30 24.38 24.52 24.58 24.55 24.35 24.33 24.27 24.39 24.21 24.00 23.91 24.20 25.04 26.10 27.53 28.23 28.73 29.03 29.37 29.56 29.55 29.28 28.45 28.25 28.26 28.16 28.14 28.13 28.09 28.23 28.39 28.75 29.19 29.73 30.32 30.72 30.96 31.06 31.02 31.34
23.43 23.13 22.81 22.29 21.84 21.50 21.26 20.96 20.66 20.56 20.56 20.76 21.07 21.39 21.73 22.08 22.45 23.29 24.17 24.84 24.50 24.09 23.71 23.56 23.56 23.70 23.87 24.26 24.26 24.12 24.26 24.38 24.63 24.61 24.50 24.39 24.62 24.73 24.67 24.35 24.49 25.18 26.19 27.57 28.32 28.83 29.18 29.46 29.64 29.81 29.54 28.87 28.46 28.45 28.34 28.27 28.14 28.06 28.08 28.32 28.56 28.93 29.42 30.06 30.50 30.85 30.97 31.12 32.08
23.42 23.07 22.49 21.98 21.53 21.25 20.91 20.60 20.48 20.56 20.79 20.98 21.07 21.35 21.72 22.06 22.82 23.84 24.76 24.96 24.81 24.43 24.08 23.81 23.64 23.87 24.04 24.30 24.12 23.95 24.00 24.26 24.63 24.78 24.90 24.89 25.18 25.69 25.80 25.08 24.99 25.39 26.16 27.48 28.30 28.83 29.10 29.46 29.64 29.81 29.71 28.89 28.73 28.61 28.53 28.40 28.09 27.96 28.06 28.17 28.42 28.64 29.07 29.62 30.15 30.50 30.81 31.00 31.88
23.36 22.70 22.09 21.67 21.28 21.03 20.68 20.34 20.44 20.73 21.00 21.14 21.21 21.63 22.14 22.64 23.34 24.14 24.67 24.75 24.63 24.51 24.25 24.07 23.90 23.99 24.16 24.30 24.15 24.00 23.89 23.89 24.29 24.69 24.95 25.11 25.34 25.77 26.04 25.29 25.19 25.27 25.88 27.03 28.05 28.75 29.11 29.52 29.74 30.02 30.01 29.25 28.95 28.80 28.63 28.42 27.97 27.62 27.65 27.91 28.30 28.46 28.72 29.15 29.67 30.23 30.48 30.87 31.37
MSLP
1017.76 1017.72 1017.68 1017.68 1017.68 1017.68 1017.68 1017.64 1017.56 1017.56 1017.52 1017.56 1017.56 1017.52 1017.52 1017.52 1017.48 1017.40 1017.28 1017.24 1017.24 1017.12 1016.96 1016.88 1016.80 1016.68 1016.52 1016.40 1016.40 1016.28 1016.16 1016.08 1015.96 1015.84 1015.80 1015.68 1015.52 1015.40 1015.28 1015.16 1015.12 1015.00 1014.92 1014.84 1014.72 1014.60 1014.48 1014.36 1014.28 1014.24 1014.20 1014.20 1014.16 1014.16 1014.16 1014.16 1014.24 1014.28 1014.32 1014.32 1014.36 1014.36 1014.36 1014.40 1014.40 1014.44 1014.44 1014.40 1014.40
1017.72 1017.68 1017.68 1017.68 1017.68 1017.64 1017.64 1017.60 1017.52 1017.48 1017.44 1017.44 1017.44 1017.40 1017.40 1017.36 1017.36 1017.24 1017.16 1017.12 1017.00 1016.92 1016.80 1016.68 1016.64 1016.52 1016.44 1016.28 1016.20 1016.12 1016.04 1015.96 1015.84 1015.68 1015.60 1015.52 1015.36 1015.24 1015.12 1015.00 1014.88 1014.80 1014.72 1014.68 1014.56 1014.44 1014.32 1014.20 1014.16 1014.12 1014.04 1013.96 1013.96 1014.00 1013.96 1013.96 1013.96 1014.04 1014.12 1014.12 1014.12 1014.12 1014.12 1014.16 1014.16 1014.16 1014.20 1014.20 1014.20
1017.68 1017.68 1017.68 1017.68 1017.68 1017.64 1017.60 1017.56 1017.52 1017.48 1017.44 1017.40 1017.32 1017.24 1017.24 1017.24 1017.20 1017.12 1017.00 1016.88 1016.80 1016.76 1016.68 1016.56 1016.48 1016.40 1016.28 1016.16 1016.04 1015.96 1015.88 1015.80 1015.68 1015.56 1015.44 1015.32 1015.20 1015.08 1014.96 1014.80 1014.68 1014.60 1014.52 1014.44 1014.36 1014.24 1014.12 1014.04 1014.00 1013.92 1013.84 1013.84 1013.80 1013.80 1013.76 1013.76 1013.72 1013.76 1013.84 1013.84 1013.88 1013.84 1013.84 1013.88 1013.88 1013.96 1013.96 1013.96 1013.96
1017.72 1017.68 1017.64 1017.68 1017.68 1017.68 1017.60 1017.48 1017.48 1017.48 1017.40 1017.32 1017.24 1017.16 1017.12 1017.12 1017.04 1016.96 1016.84 1016.76 1016.68 1016.64 1016.52 1016.40 1016.32 1016.24 1016.12 1016.04 1015.88 1015.80 1015.68 1015.60 1015.52 1015.40 1015.28 1015.16 1015.00 1014.88 1014.76 1014.64 1014.52 1014.40 1014.28 1014.20 1014.16 1014.04 1013.92 1013.84 1013.80 1013.68 1013.68 1013.68 1013.68 1013.68 1013.56 1013.52 1013.52 1013.52 1013.52 1013.52 1013.56 1013.60 1013.60 1013.52 1013.60 1013.64 1013.64 1013.64 1013.68
1017.72 1017.68 1017.68 1017.68 1017.64 1017.60 1017.56 1017.52 1017.52 1017.44 1017.36 1017.24 1017.16 1017.12 1017.04 1016.96 1016.88 1016.80 1016.72 1016.64 1016.52 1016.40 1016.32 1016.24 1016.12 1016.04 1015.96 1015.84 1015.72 1015.60 1015.52 1015.40 1015.32 1015.24 1015.12 1014.96 1014.80 1014.68 1014.52 1014.44 1014.32 1014.20 1014.08 1013.96 1013.92 1013.84 1013.72 1013.68 1013.60 1013.52 1013.52 1013.52 1013.48 1013.40 1013.36 1013.36 1013.40 1013.36 1013.28 1013.28 1013.28 1013.28 1013.28 1013.32 1013.36 1013.36 1013.36 1013.40 1013.40
1017.72 1017.68 1017.68 1017.64 1017.60 1017.56 1017.52 1017.48 1017.40 1017.36 1017.24 1017.20 1017.12 1017.08 1016.96 1016.84 1016.72 1016.68 1016.56 1016.44 1016.36 1016.20 1016.12 1016.00 1015.96 1015.84 1015.68 1015.60 1015.52 1015.40 1015.28 1015.20 1015.12 1015.04 1014.96 1014.80 1014.64 1014.48 1014.32 1014.24 1014.08 1013.96 1013.88 1013.80 1013.68 1013.60 1013.52 1013.52 1013.48 1013.40 1013.40 1013.40 1013.36 1013.28 1013.24 1013.28 1013.28 1013.24 1013.20 1013.16 1013.08 1013.04 1013.04 1013.04 1013.08 1013.12 1013.12 1013.12 1013.12
1017.72 1017.68 1017.68 1017.60 1017.52 1017.48 1017.44 1017.36 1017.28 1017.20 1017.12 1017.08 1017.04 1016.96 1016.80 1016.68 1016.60 1016.52 1016.40 1016.24 1016.12 1016.00 1015.88 1015.80 1015.72 1015.64 1015.52 1015.40 1015.32 1015.24 1015.12 1015.00 1014.88 1014.80 1014.72 1014.56 1014.40 1014.28 1014.16 1014.00 1013.88 1013.80 1013.68 1013.60 1013.52 1013.44 1013.40 1013.40 1013.36 1013.28 1013.24 1013.24 1013.24 1013.20 1013.20 1013.20 1013.16 1013.16 1013.12 1013.00 1012.88 1012.80 1012.80 1012.80 1012.80 1012.80 1012.88 1012.92 1012.96
1017.68 1017.64 1017.56 1017.52 1017.44 1017.40 1017.32 1017.24 1017.16 1017.08 1016.96 1016.92 1016.88 1016.80 1016.68 1016.56 1016.44 1016.32 1016.20 1016.08 1015.92 1015.84 1015.72 1015.60 1015.52 1015.40 1015.32 1015.24 1015.16 1015.08 1014.96 1014.80 1014.68 1014.56 1014.48 1014.36 1014.24 1014.08 1013.92 1013.80 1013.68 1013.60 1013.52 1013.44 1013.40 1013.32 1013.24 1013.24 1013.20 1013.12 1013.08 1013.12 1013.08 1013.04 1013.04 1013.12 1013.12 1013.04 1012.96 1012.84 1012.68 1012.64 1012.56 1012.52 1012.52 1012.60 1012.64 1012.68 1012.68
1017.64 1017.52 1017.44 1017.36 1017.28 1017.20 1017.12 1017.12 1017.04 1016.96 1016.88 1016.80 1016.68 1016.60 1016.52 1016.40 1016.28 1016.20 1016.08 1015.96 1015.80 1015.64 1015.52 1015.44 1015.36 1015.28 1015.20 1015.12 1015.00 1014.88 1014.72 1014.60 1014.44 1014.32 1014.16 1014.12 1014.00 1013.84 1013.68 1013.60 1013.52 1013.40 1013.28 1013.24 1013.16 1013.12 1013.08 1013.04 1012.96 1012.88 1012.88 1012.92 1012.88 1012.80 1012.80 1012.84 1012.88 1012.88 1012.80 1012.68 1012.52 1012.44 1012.36 1012.32 1012.28 1012.32 1012.36 1012.40 1012.44
1017.52 1017.40 1017.28 1017.20 1017.12 1017.00 1016.96 1016.88 1016.80 1016.76 1016.72 1016.64 1016.52 1016.40 1016.32 1016.24 1016.12 1016.04 1015.92 1015.80 1015.64 1015.56 1015.48 1015.36 1015.24 1015.16 1015.08 1014.92 1014.80 1014.68 1014.52 1014.40 1014.24 1014.12 1013.96 1013.84 1013.76 1013.64 1013.52 1013.40 1013.28 1013.16 1013.04 1012.96 1012.96 1012.92 1012.88 1012.80 1012.76 1012.68 1012.64 1012.68 1012.64 1012.60 1012.56 1012.60 1012.68 1012.60 1012.52 1012.40 1012.32 1012.24 1012.12 1012.04 1012.04 1012.04 1012.04 1012.08 1012.12
1017.36 1017.24 1017.12 1017.08 1016.96 1016.84 1016.80 1016.68 1016.64 1016.60 1016.52 1016.48 1016.36 1016.24 1016.20 1016.12 1016.00 1015.92 1015.80 1015.68 1015.56 1015.48 1015.40 1015.28 1015.16 1015.04 1014.92 1014.72 1014.60 1014.44 1014.32 1014.16 1014.04 1013.92 1013.76 1013.60 1013.52 1013.44 1013.32 1013.16 1013.04 1012.96 1012.80 1012.72 1012.68 1012.68 1012.68 1012.60 1012.52 1012.44 1012.40 1012.36 1012.36 1012.32 1012.28 1012.28 1012.32 1012.24 1012.16 1012.04 1011.96 1011.92 1011.84 1011.72 1011.68 1011.68 1011.68 1011.72 1011.72
1017.16 1017.04 1016.96 1016.88 1016.80 1016.72 1016.68 1016.60 1016.52 1016.52 1016.44 1016.40 1016.24 1016.16 1016.08 1016.00 1015.92 1015.84 1015.68 1015.64 1015.52 1015.40 1015.24 1015.12 1015.04 1014.96 1014.76 1014.56 1014.40 1014.24 1014.12 1014.00 1013.88 1013.72 1013.56 1013.44 1013.32 1013.20 1013.08 1012.96 1012.80 1012.72 1012.64 1012.52 1012.48 1012.44 1012.40 1012.32 1012.24 1012.20 1012.12 1012.04 1012.04 1011.96 1011.96 1011.96 1011.96 1011.88 1011.76 1011.68 1011.60 1011.52 1011.48 1011.40 1011.36 1011.36 1011.32 1011.36 1011.36
1016.96 1016.88 1016.80 1016.72 1016.68 1016.60 1016.60 1016.56 1016.52 1016.44 1016.40 1016.28 1016.20 1016.12 1016.00 1015.92 1015.84 1015.76 1015.68 1015.52 1015.40 1015.24 1015.08 1014.96 1014.84 1014.76 1014.60 1014.40 1014.24 1014.12 1013.96 1013.84 1013.68 1013.52 1013.40 1013.20 1013.08 1012.96 1012.80 1012.68 1012.56 1012.48 1012.40 1012.28 1012.24 1012.16 1012.12 1012.04 1011.96 1011.92 1011.84 1011.72 1011.64 1011.56 1011.52 1011.52 1011.52 1011.44 1011.36 1011.28 1011.24 1011.16 1011.08 1011.00 1010.96 1010.96 1010.96 1010.96 1010.96
1016.80 1016.76 1016.68 1016.68 1016.60 1016.60 1016.56 1016.56 1016.48 1016.40 1016.32 1016.24 1016.12 1016.04 1015.92 1015.84 1015.68 1015.64 1015.52 1015.40 1015.24 1015.08 1014.92 1014.80 1014.64 1014.52 1014.40 1014.24 1014.08 1013.92 1013.80 1013.64 1013.44 1013.28 1013.12 1012.96 1012.80 1012.68 1012.52 1012.40 1012.28 1012.16 1012.08 1011.96 1011.92 1011.88 1011.80 1011.72 1011.64 1011.52 1011.48 1011.36 1011.24 1011.16 1011.12 1011.12 1011.04 1010.96 1010.88 1010.84 1010.80 1010.72 1010.64 1010.56 1010.56 1010.60 1010.64 1010.64 1010.60
1016.68 1016.68 1016.64 1016.60 1016.60 1016.56 1016.56 1016.52 1016.44 1016.32 1016.24 1016.12 1016.04 1015.96 1015.84 1015.72 1015.56 1015.48 1015.36 1015.24 1015.08 1014.92 1014.76 1014.60 1014.40 1014.24 1014.12 1014.00 1013.84 1013.68 1013.52 1013.40 1013.24 1013.04 1012.84 1012.68 1012.52 1012.40 1012.24 1012.12 1011.96 1011.88 1011.80 1011.68 1011.56 1011.52 1011.44 1011.36 1011.24 1011.16 1011.08 1010.96 1010.88 1010.80 1010.72 1010.68 1010.64 1010.52 1010.48 1010.40 1010.32 1010.24 1010.20 1010.20 1010.20 1010.24 1010.24 1010.24 1010.24
1016.68 1016.64 1016.60 1016.60 1016.56 1016.52 1016.52 1016.48 1016.40 1016.28 1016.16 1016.04 1015.92 1015.80 1015.68 1015.52 1015.40 1015.28 1015.20 1015.04 1014.84 1014.68 1014.52 1014.36 1014.16 1013.96 1013.84 1013.68 1013.56 1013.44 1013.32 1013.16 1012.96 1012.80 1012.60 1012.40 1012.24 1012.12 1011.96 1011.84 1011.68 1011.56 1011.48 1011.40 1011.28 1011.16 1011.08 1010.96 1010.88 1010.80 1010.68 1010.60 1010.52 1010.40 1010.36 1010.28 1010.24 1010.12 1010.04 1009.96 1009.88 1009.84 1009.80 1009.76 1009.80 1009.80 1009.84 1009.84 1009.84
1016.68 1016.60 1016.56 1016.56 1016.52 1016.48 1016.44 1016.40 1016.28 1016.16 1016.08 1015.96 1015.80 1015.64 1015.52 1015.36 1015.24 1015.08 1014.96 1014.80 1014.64 1014.44 1014.24 1014.08 1013.92 1013.76 1013.56 1013.40 1013.28 1013.24 1013.12 1012.92 1012.72 1012.52 1012.36 1012.16 1012.00 1011.84 1011.68 1011.56 1011.44 1011.32 1011.24 1011.12 1010.96 1010.84 1010.68 1010.56 1010.52 1010.40 1010.32 1010.24 1010.12 1010.04 1009.96 1009.92 1009.84 1009.72 1009.64 1009.56 1009.52 1009.44 1009.40 1009.32 1009.36 1009.36 1009.36 1009.36 1009.36
1016.64 1016.56 1016.52 1016.52 1016.48 1016.40 1016.36 1016.24 1016.12 1016.04 1015.92 1015.80 1015.68 1015.48 1015.32 1015.20 1015.08 1014.88 1014.68 1014.52 1014.44 1014.28 1014.08 1013.84 1013.68 1013.52 1013.36 1013.16 1013.04 1012.96 1012.88 1012.68 1012.48 1012.28 1012.12 1011.96 1011.80 1011.68 1011.52 1011.32 1011.20 1011.08 1010.96 1010.84 1010.68 1010.52 1010.40 1010.24 1010.16 1010.08 1009.96 1009.84 1009.76 1009.68 1009.60 1009.52 1009.40 1009.32 1009.24 1009.16 1009.12 1009.04 1008.96 1008.92 1008.88 1008.88 1008.88 1008.88 1008.80
1016.60 1016.52 1016.48 1016.40 1016.36 1016.28 1016.24 1016.12 1015.96 1015.84 1015.72 1015.60 1015.48 1015.32 1015.16 1015.04 1014.88 1014.68 1014.52 1014.28 1014.20 1014.08 1013.92 1013.68 1013.44 1013.28 1013.12 1012.96 1012.84 1012.72 1012.60 1012.44 1012.24 1012.08 1011.92 1011.76 1011.56 1011.44 1011.24 1011.08 1010.96 1010.84 1010.72 1010.56 1010.40 1010.24 1010.08 1009.92 1009.80 1009.72 1009.64 1009.52 1009.40 1009.28 1009.20 1009.12 1009.04 1008.96 1008.84 1008.80 1008.68 1008.64 1008.56 1008.52 1008.48 1008.40 1008.40 1008.40 1008.32
1016.52 1016.44 1016.40 1016.32 1016.24 1016.12 1016.04 1015.96 1015.84 1015.68 1015.60 1015.40 1015.32 1015.16 1015.04 1014.88 1014.68 1014.56 1014.40 1014.12 1013.96 1013.84 1013.72 1013.52 1013.32 1013.08 1012.88 1012.72 1012.64 1012.48 1012.32 1012.20 1012.04 1011.84 1011.68 1011.52 1011.36 1011.16 1010.96 1010.80 1010.68 1010.52 1010.40 1010.24 1010.08 1009.88 1009.72 1009.60 1009.48 1009.40 1009.32 1009.24 1009.12 1008.96 1008.84 1008.76 1008.68 1008.56 1008.44 1008.40 1008.28 1008.20 1008.12 1008.08 1008.00 1007.96 1007.96 1007.92 1007.88
1016.44 1016.36 1016.24 1016.20 1016.12 1016.00 1015.92 1015.76 1015.68 1015.56 1015.44 1015.32 1015.16 1015.04 1014.88 1014.68 1014.52 1014.40 1014.20 1013.96 1013.84 1013.64 1013.48 1013.28 1013.12 1012.92 1012.72 1012.52 1012.40 1012.20 1012.04 1011.92 1011.80 1011.60 1011.40 1011.24 1011.04 1010.84 1010.68 1010.56 1010.40 1010.20 1010.00 1009.84 1009.68 1009.52 1009.40 1009.28 1009.20 1009.08 1008.96 1008.88 1008.76 1008.64 1008.52 1008.44 1008.36 1008.24 1008.12 1008.00 1007.88 1007.80 1007.68 1007.68 1007.60 1007.52 1007.52 1007.48 1007.40
1016.28 1016.20 1016.12 1016.04 1015.96 1015.84 1015.72 1015.64 1015.52 1015.44 1015.32 1015.20 1015.04 1014.88 1014.72 1014.56 1014.36 1014.16 1013.96 1013.76 1013.64 1013.48 1013.24 1013.08 1012.92 1012.72 1012.52 1012.36 1012.12 1011.96 1011.76 1011.60 1011.44 1011.28 1011.12 1010.92 1010.72 1010.56 1010.40 1010.24 1010.08 1009.84 1009.64 1009.44 1009.32 1009.16 1009.04 1008.96 1008.88 1008.80 1008.68 1008.56 1008.40 1008.28 1008.20 1008.12 1007.96 1007.88 1007.76 1007.64 1007.52 1007.40 1007.28 1007.24 1007.20 1007.12 1007.08 1007.00 1006.96
1016.12 1016.04 1015.96 1015.84 1015.76 1015.68 1015.60 1015.52 1015.40 1015.28 1015.20 1015.08 1014.92 1014.76 1014.56 1014.40 1014.12 1013.96 1013.76 1013.56 1013.40 1013.24 1013.04 1012.88 1012.68 1012.48 1012.28 1012.12 1011.92 1011.72 1011.48 1011.28 1011.08 1010.92 1010.76 1010.64 1010.44 1010.24 1010.12 1009.96 1009.72 1009.48 1009.24 1009.04 1008.88 1008.76 1008.64 1008.52 1008.44 1008.40 1008.32 1008.20 1008.04 1007.96 1007.84 1007.72 1007.64 1007.52 1007.36 1007.20 1007.12 1007.00 1006.92 1006.84 1006.76 1006.68 1006.64 1006.56 1006.52
1015.96 1015.92 1015.80 1015.68 1015.60 1015.52 1015.44 1015.36 1015.28 1015.20 1015.08 1014.92 1014.76 1014.56 1014.40 1014.16 1013.96 1013.72 1013.52 1013.32 1013.12 1012.96 1012.80 1012.64 1012.40 1012.20 1012.00 1011.84 1011.64 1011.44 1011.24 1010.96 1010.68 1010.48 1010.28 1010.20 1010.08 1009.92 1009.72 1009.52 1009.32 1009.08 1008.84 1008.64 1008.52 1008.40 1008.28 1008.12 1008.00 1007.92 1007.84 1007.72 1007.64 1007.52 1007.40 1007.28 1007.20 1007.08 1006.96 1006.76 1006.68 1006.52 1006.44 1006.40 1006.28 1006.20 1006.12 1006.12 1006.04
1015.88 1015.80 1015.68 1015.60 1015.52 1015.40 1015.32 1015.24 1015.16 1015.08 1014.92 1014.72 1014.56 1014.40 1014.20 1013.96 1013.72 1013.52 1013.28 1013.08 1012.84 1012.68 1012.48 1012.28 1012.12 1011.88 1011.68 1011.48 1011.24 1011.08 1010.84 1010.64 1010.40 1010.12 1009.88 1009.72 1009.60 1009.52 1009.36 1009.16 1008.96 1008.68 1008.44 1008.28 1008.12 1007.96 1007.88 1007.80 1007.68 1007.52 1007.40 1007.28 1007.20 1007.08 1006.96 1006.80 1006.72 1006.64 1006.52 1006.36 1006.24 1006.12 1006.00 1005.88 1005.80 1005.72 1005.68 1005.60 1005.56
1015.80 1015.68 1015.60 1015.52 1015.44 1015.36 1015.24 1015.20 1015.12 1014.96 1014.80 1014.60 1014.40 1014.16 1013.96 1013.76 1013.52 1013.32 1013.12 1012.80 1012.56 1012.40 1012.20 1012.04 1011.80 1011.56 1011.36 1011.12 1010.88 1010.68 1010.44 1010.24 1010.04 1009.84 1009.56 1009.40 1009.24 1009.08 1008.96 1008.80 1008.56 1008.32 1008.12 1007.96 1007.76 1007.68 1007.56 1007.48 1007.40 1007.28 1007.16 1007.04 1006.88 1006.68 1006.52 1006.40 1006.28 1006.20 1006.08 1005.96 1005.84 1005.72 1005.60 1005.44 1005.32 1005.24 1005.16 1005.16 1005.12
1015.68 1015.64 1015.52 1015.40 1015.32 1015.24 1015.16 1015.08 1014.96 1014.80 1014.60 1014.40 1014.20 1013.96 1013.76 1013.52 1013.28 1013.12 1012.84 1012.56 1012.32 1012.12 1011.92 1011.72 1011.52 1011.28 1011.04 1010.76 1010.52 1010.28 1010.08 1009.92 1009.72 1009.52 1009.28 1009.12 1008.92 1008.68 1008.52 1008.40 1008.24 1008.00 1007.80 1007.64 1007.48 1007.36 1007.24 1007.16 1007.04 1006.96 1006.88 1006.76 1006.60 1006.40 1006.24 1006.04 1005.92 1005.84 1005.68 1005.56 1005.40 1005.28 1005.16 1005.04 1004.92 1004.84 1004.80 1004.80 1004.72
1015.64 1015.52 1015.44 1015.36 1015.24 1015.12 1015.04 1014.92 1014.80 1014.64 1014.44 1014.24 1014.04 1013.80 1013.52 1013.28 1013.08 1012.84 1012.60 1012.36 1012.12 1011.88 1011.68 1011.40 1011.20 1011.00 1010.76 1010.48 1010.24 1010.04 1009.84 1009.64 1009.44 1009.24 1009.04 1008.80 1008.60 1008.40 1008.20 1008.04 1007.84 1007.64 1007.40 1007.24 1007.12 1006.96 1006.84 1006.76 1006.68 1006.56 1006.52 1006.44 1006.32 1006.16 1005.96 1005.84 1005.68 1005.52 1005.40 1005.24 1005.04 1004.88 1004.76 1004.64 1004.52 1004.52 1004.48 1004.40 1004.40
1015.56 1015.52 1015.40 1015.32 1015.20 1015.08 1014.92 1014.80 1014.68 1014.48 1014.24 1014.08 1013.84 1013.60 1013.36 1013.12 1012.84 1012.60 1012.36 1012.12 1011.84 1011.64 1011.40 1011.16 1010.92 1010.72 1010.52 1010.24 1010.00 1009.80 1009.56 1009.40 1009.20 1008.96 1008.72 1008.44 1008.24 1008.04 1007.84 1007.68 1007.48 1007.24 1007.08 1006.96 1006.80 1006.64 1006.48 1006.40 1006.28 1006.20 1006.12 1006.08 1006.00 1005.84 1005.68 1005.52 1005.36 1005.24 1005.08 1004.96 1004.76 1004.60 1004.44 1004.28 1004.16 1004.08 1004.04 1004.04 1004.04
1015.52 1015.44 1015.40 1015.24 1015.12 1014.96 1014.80 1014.68 1014.52 1014.32 1014.12 1013.84 1013.64 1013.40 1013.12 1012.88 1012.60 1012.36 1012.12 1011.88 1011.68 1011.44 1011.24 1011.00 1010.76 1010.52 1010.32 1010.08 1009.84 1009.56 1009.28 1009.04 1008.80 1008.64 1008.40 1008.12 1007.92 1007.72 1007.52 1007.36 1007.16 1006.96 1006.80 1006.64 1006.48 1006.32 1006.20 1006.08 1005.96 1005.84 1005.80 1005.72 1005.68 1005.56 1005.40 1005.24 1005.08 1004.92 1004.80 1004.60 1004.48 1004.36 1004.24 1004.04 1003.92 1003.80 1003.68 1003.60 1003.56
1015.44 1015.40 1015.28 1015.16 1015.04 1014.84 1014.68 1014.48 1014.32 1014.12 1013.92 1013.68 1013.48 1013.24 1012.96 1012.68 1012.40 1012.16 1011.96 1011.68 1011.48 1011.20 1010.96 1010.80 1010.60 1010.36 1010.12 1009.88 1009.68 1009.40 1009.08 1008.80 1008.56 1008.40 1008.16 1007.92 1007.68 1007.44 1007.24 1007.08 1006.92 1006.68 1006.52 1006.36 1006.20 1006.04 1005.88 1005.76 1005.64 1005.52 1005.44 1005.40 1005.32 1005.24 1005.04 1004.88 1004.72 1004.52 1004.40 1004.24 1004.12 1004.04 1003.96 1003.84 1003.68 1003.52 1003.40 1003.28 1003.20
1015.40 1015.36 1015.24 1015.08 1014.92 1014.72 1014.52 1014.36 1014.16 1013.96 1013.76 1013.52 1013.32 1013.08 1012.80 1012.48 1012.20 1011.96 1011.72 1011.52 1011.28 1011.04 1010.76 1010.52 1010.32 1010.08 1009.80 1009.52 1009.36 1009.12 1008.84 1008.60 1008.36 1008.12 1007.92 1007.68 1007.44 1007.24 1007.00 1006.80 1006.60 1006.40 1006.20 1006.00 1005.88 1005.72 1005.56 1005.40 1005.32 1005.20 1005.08 1004.96 1004.96 1004.80 1004.68 1004.52 1004.40 1004.20 1003.96 1003.84 1003.72 1003.68 1003.60 1003.52 1003.36 1003.24 1003.16 1003.08 1002.96
1015.32 1015.24 1015.16 1015.00 1014.80 1014.60 1014.40 1014.20 1014.00 1013.80 1013.56 1013.36 1013.12 1012.84 1012.52 1012.24 1011.96 1011.68 1011.48 1011.24 1011.12 1010.84 1010.60 1010.32 1010.08 1009.84 1009.56 1009.28 1009.04 1008.80 1008.52 1008.28 1008.08 1007.88 1007.68 1007.48 1007.24 1006.96 1006.72 1006.48 1006.24 1006.04 1005.84 1005.68 1005.52 1005.36 1005.20 1005.08 1004.96 1004.84 1004.76 1004.68 1004.52 1004.40 1004.28 1004.16 1004.00 1003.80 1003.56 1003.40 1003.28 1003.24 1003.16 1003.08 1003.00 1002.92 1002.80 1002.76 1002.68
1015.24 1015.16 1015.00 1014.88 1014.68 1014.44 1014.24 1014.08 1013.84 1013.64 1013.40 1013.16 1012.88 1012.60 1012.36 1012.08 1011.80 1011.48 1011.24 1011.00 1010.80 1010.60 1010.36 1010.12 1009.88 1009.64 1009.40 1009.12 1008.84 1008.56 1008.24 1008.00 1007.80 1007.60 1007.40 1007.20 1006.96 1006.72 1006.44 1006.16 1005.92 1005.68 1005.52 1005.40 1005.16 1005.00 1004.84 1004.68 1004.56 1004.48 1004.40 1004.24 1004.20 1004.04 1003.92 1003.76 1003.56 1003.36 1003.16 1002.96 1002.80 1002.72 1002.68 1002.60 1002.52 1002.48 1002.40 1002.36 1002.36
1015.16 1015.08 1014.92 1014.72 1014.52 1014.32 1014.12 1013.92 1013.68 1013.48 1013.24 1012.96 1012.64 1012.36 1012.12 1011.88 1011.64 1011.32 1011.04 1010.80 1010.56 1010.32 1010.08 1009.84 1009.64 1009.40 1009.16 1008.84 1008.60 1008.32 1008.04 1007.76 1007.52 1007.24 1007.08 1006.88 1006.68 1006.40 1006.12 1005.84 1005.52 1005.36 1005.20 1005.04 1004.80 1004.60 1004.44 1004.28 1004.16 1004.04 1003.92 1003.88 1003.84 1003.68 1003.44 1003.28 1003.08 1002.88 1002.68 1002.52 1002.40 1002.24 1002.16 1002.08 1001.96 1001.96 1001.92 1001.92 1001.92
1015.08 1014.96 1014.84 1014.68 1014.40 1014.20 1013.96 1013.76 1013.52 1013.28 1013.04 1012.76 1012.48 1012.16 1011.88 1011.60 1011.36 1011.08 1010.80 1010.60 1010.32 1010.00 1009.76 1009.52 1009.32 1009.12 1008.84 1008.52 1008.28 1008.04 1007.76 1007.48 1007.20 1006.96 1006.72 1006.52 1006.36 1006.12 1005.80 1005.44 1005.16 1004.96 1004.76 1004.60 1004.40 1004.20 1004.00 1003.84 1003.68 1003.56 1003.48 1003.40 1003.32 1003.16 1002.96 1002.76 1002.52 1002.32 1002.12 1002.00 1001.84 1001.72 1001.64 1001.52 1001.48 1001.40 1001.36 1001.36 1001.36
1014.96 1014.88 1014.76 1014.56 1014.28 1014.08 1013.84 1013.60 1013.40 1013.12 1012.84 1012.60 1012.32 1012.00 1011.68 1011.40 1011.08 1010.80 1010.56 1010.40 1010.12 1009.76 1009.44 1009.24 1009.04 1008.80 1008.52 1008.24 1007.92 1007.64 1007.40 1007.12 1006.92 1006.68 1006.40 1006.20 1006.00 1005.76 1005.44 1005.12 1004.80 1004.52 1004.28 1004.12 1003.96 1003.72 1003.52 1003.40 1003.20 1003.04 1002.96 1002.92 1002.80 1002.60 1002.40 1002.20 1001.96 1001.76 1001.56 1001.40 1001.24 1001.12 1001.04 1001.00 1000.96 1000.84 1000.76 1000.72 1000.68
1014.84 1014.80 1014.64 1014.44 1014.20 1013.96 1013.72 1013.48 1013.28 1013.00 1012.72 1012.40 1012.12 1011.80 1011.52 1011.20 1010.88 1010.56 1010.36 1010.12 1009.88 1009.52 1009.20 1008.96 1008.72 1008.48 1008.20 1007.96 1007.64 1007.28 1007.00 1006.80 1006.64 1006.40 1006.12 1005.84 1005.64 1005.44 1005.12 1004.76 1004.40 1004.08 1003.84 1003.64 1003.40 1003.24 1003.04 1002.80 1002.64 1002.52 1002.44 1002.40 1002.24 1002.08 1001.84 1001.64 1001.40 1001.16 1000.96 1000.80 1000.68 1000.52 1000.48 1000.40 1000.32 1000.24 1000.12 1000.04 1000.00
1014.72 1014.64 1014.52 1014.32 1014.12 1013.84 1013.60 1013.40 1013.12 1012.88 1012.60 1012.28 1011.92 1011.56 1011.28 1011.00 1010.68 1010.40 1010.12 1009.92 1009.68 1009.40 1009.04 1008.72 1008.40 1008.12 1007.88 1007.68 1007.36 1006.96 1006.64 1006.40 1006.24 1006.08 1005.84 1005.52 1005.24 1005.08 1004.80 1004.48 1004.08 1003.68 1003.40 1003.16 1002.92 1002.68 1002.52 1002.28 1002.08 1001.92 1001.84 1001.80 1001.68 1001.52 1001.32 1001.04 1000.80 1000.60 1000.40 1000.24 1000.08 999.92 999.84 999.76 999.68 999.52 999.40 999.36 999.36
1014.60 1014.48 1014.36 1014.20 1013.96 1013.76 1013.52 1013.24 1012.96 1012.72 1012.48 1012.12 1011.80 1011.40 1011.08 1010.80 1010.48 1010.16 1009.92 1009.68 1009.44 1009.20 1008.92 1008.56 1008.24 1007.88 1007.60 1007.36 1007.08 1006.68 1006.32 1006.00 1005.80 1005.68 1005.48 1005.20 1004.96 1004.68 1004.44 1004.16 1003.80 1003.40 1003.00 1002.72 1002.48 1002.24 1002.00 1001.76 1001.52 1001.36 1001.24 1001.16 1001.04 1000.92 1000.72 1000.52 1000.24 1000.04 999.84 999.64 999.48 999.32 999.16 999.04 998.96 998.88 998.80 998.68 998.68
1014.48 1014.36 1014.24 1014.04 1013.84 1013.64 1013.40 1013.12 1012.80 1012.52 1012.24 1011.96 1011.64 1011.24 1010.92 1010.60 1010.24 1009.96 1009.68 1009.44 1009.20 1008.96 1008.68 1008.36 1007.96 1007.60 1007.32 1007.12 1006.80 1006.48 1006.12 1005.72 1005.40 1005.24 1005.08 1004.84 1004.60 1004.28 1004.00 1003.76 1003.40 1003.04 1002.68 1002.28 1002.00 1001.76 1001.48 1001.24 1001.00 1000.76 1000.60 1000.52 1000.40 1000.32 1000.16 999.96 999.72 999.48 999.24 999.04 998.88 998.72 998.52 998.40 998.28 998.24 998.16 998.08 998.04
Wind_Speed
2 2 2 2 2 2 1 1 2 1 1 1 1 1 1 1 2 2 2 2 2 3 3 3 3 4 4 5 6 7 7 7 7 8 8 8 8 8 8 8 7 7 7 8 7 7 6 6 6 5 4 4 5 5 5 4 5 5 5 5 5 5 6 6 6 6 5 5 4
1 1 1 1 1 1 1 1 1 1 1 1 1 1 1 2 2 2 2 2 2 3 3 3 3 3 4 6 6 6 7 7 8 8 8 8 8 8 8 8 8 8 8 8 8 7 6 6 5 5 4 4 4 5 5 5 6 6 6 7 5 5 5 6 6 6 6 5 5
1 1 1 1 1 1 1 2 2 2 2 2 2 2 2 2 2 3 3 3 3 3 3 3 3 4 4 6 6 6 6 7 7 8 7 7 8 8 8 8 8 8 8 8 8 7 6 6 5 5 4 4 4 5 4 4 5 6 6 7 5 4 4 4 5 5 5 4 5
1 1 2 2 2 2 2 2 3 3 3 3 2 2 2 2 2 3 3 3 3 3 3 3 4 4 4 5 6 6 7 7 7 7 8 8 8 9 9 9 9 9 9 8 8 8 7 6 5 4 4 4 5 5 4 4 5 5 5 5 4 4 4 4 4 4 4 4 4
2 2 2 2 2 2 2 2 3 3 3 3 3 3 3 2 3 3 3 3 3 4 4 4 4 4 4 5 6 7 7 7 7 7 7 8 8 9 9 9 9 9 9 9 9 8 8 6 4 4 4 4 4 4 4 4 4 4 3 3 3 4 4 4 4 4 3 3 3
3 2 2 2 2 2 2 2 2 3 3 2 3 3 4 3 3 4 4 4 5 5 5 5 5 5 5 5 6 6 6 6 6 6 7 8 8 9 9 10 10 9 9 8 8 8 7 6 4 3 3 3 3 4 4 4 4 3 3 3 3 3 3 4 3 3 3 4 4
2 2 2 2 2 2 2 2 2 3 3 3 4 5 5 5 5 5 6 5 5 5 5 4 5 5 6 6 6 6 6 6 6 7 7 8 8 9 9 10 9 9 8 8 8 7 6 5 4 3 3 3 3 3 3 3 3 3 4 4 4 3 3 4 3 3 4 5 6
1 1 2 2 2 2 2 2 2 3 3 3 5 6 7 7 7 7 7 6 6 5 5 5 6 7 7 7 7 7 7 7 7 7 7 7 8 9 9 9 9 8 8 7 7 6 5 4 4 3 3 3 3 3 4 4 5 5 5 6 4 4 3 3 3 3 4 6 7
1 1 2 2 2 2 2 3 3 3 4 5 6 7 7 7 8 8 7 6 6 6 6 6 7 8 8 8 8 8 7 7 7 7 7 7 8 9 9 8 8 8 7 7 6 6 6 4 4 4 4 4 4 4 5 6 6 7 7 6 5 5 4 4 4 4 5 6 7
2 2 2 2 2 2 3 3 4 4 5 6 7 7 7 7 8 7 7 6 6 6 6 6 7 8 9 9 9 8 8 7 7 8 8 8 8 8 8 8 8 8 7 6 6 6 6 5 5 5 5 5 6 7 7 7 8 8 8 6 5 6 7 6 6 6 6 7 8
2 2 2 2 3 3 4 4 5 5 6 7 7 8 7 7 7 7 6 6 7 7 7 7 8 8 9 9 9 8 8 8 7 8 8 8 8 8 8 8 8 8 8 7 6 5 5 5 6 7 7 6 7 8 9 9 10 10 10 8 8 9 9 9 8 7 7 7 8
2 2 2 3 4 4 5 5 5 6 6 7 7 7 7 7 7 7 7 6 7 7 7 7 8 8 9 8 8 8 8 8 8 8 8 8 8 8 8 8 8 9 9 8 6 5 5 6 7 8 9 9 8 8 9 10 11 12 12 11 11 11 11 11 10 9 8 8 9
2 3 4 4 5 5 5 5 5 5 5 6 6 6 6 6 6 6 6 7 7 7 7 7 7 8 8 8 8 8 8 8 8 8 8 9 9 9 9 9 9 9 9 9 7 7 7 8 9 10 11 11 10 10 10 12 12 12 13 13 13 13 13 13 12 10 9 9 10
3 4 5 5 5 5 5 5 4 4 5 6 6 5 5 5 5 5 5 6 7 7 7 7 7 7 7 8 8 9 9 9 9 9 10 10 10 9 9 9 9 9 9 9 8 9 9 10 11 12 13 13 13 12 12 12 13 13 13 14 14 14 14 13 12 11 11 11 11
4 5 5 5 5 5 4 4 3 4 4 5 5 5 5 5 5 5 5 6 7 7 6 6 6 6 7 8 9 9 10 10 10 10 11 11 11 10 10 10 10 10 10 9 9 10 11 12 12 13 13 14 14 14 13 13 13 13 14 14 14 14 14 13 13 12 12 12 12
5 5 5 5 5 4 4 4 3 3 4 4 5 5 4 4 4 4 5 6 6 6 6 7 7 7 7 8 9 9 9 10 10 10 11 11 11 11 11 11 11 11 10 11 11 11 11 12 12 12 13 14 14 14 14 13 13 14 14 14 14 14 14 14 13 13 13 13 13
5 5 5 4 5 5 5 4 4 4 4 5 5 5 5 5 4 5 5 6 6 6 7 8 8 8 8 8 8 8 8 9 10 10 10 11 11 11 11 11 11 11 11 11 12 12 12 12 12 12 13 13 13 14 14 14 14 14 14 14 15 15 15 15 15 14 14 14 14
5 5 5 5 5 5 6 5 5 5 5 5 6 6 6 6 6 7 7 7 7 8 9 10 9 9 9 9 9 8 8 9 10 11 11 12 12 12 12 12 12 12 12 12 13 13 13 13 13 13 13 13 13 13 13 14 14 14 14 15 15 15 15 16 16 15 15 15 15
5 5 5 5 5 6 6 6 6 6 6 6 6 7 7 7 8 8 9 9 9 10 10 11 10 10 10 11 10 10 9 10 11 12 13 13 13 13 13 13 13 13 13 13 13 14 14 14 14 14 13 13 13 13 13 14 14 14 14 15 15 15 16 16 16 16 15 16 16
5 5 6 5 6 6 6 6 6 6 6 6 7 8 9 9 9 10 10 11 11 11 11 11 11 11 11 12 12 12 11 10 11 12 13 13 13 14 14 14 14 15 15 15 15 15 15 15 15 14 14 14 14 14 14 14 14 14 14 14 15 15 16 16 16 16 16 16 16
5 6 6 5 6 6 6 6 6 6 7 7 8 9 9 10 10 11 11 12 12 12 12 12 12 12 13 13 13 13 12 10 11 12 13 14 15 15 15 15 16 16 16 16 16 16 16 16 15 15 15 15 15 15 14 14 14 14 15 14 14 15 16 16 16 16 17 17 17
5 5 5 5 5 6 6 6 6 7 7 8 9 9 10 10 11 11 12 12 12 12 12 12 12 13 13 13 13 13 12 11 12 13 14 14 15 15 16 15 16 17 17 17 16 16 16 16 16 16 16 16 16 16 16 15 15 15 16 16 16 17 17 17 16 17 17 17 17
6 5 5 5 5 6 7 7 7 7 8 9 9 9 10 10 11 11 12 12 12 12 12 11 11 12 13 13 13 13 13 13 14 14 14 14 15 16 16 15 16 16 16 15 15 15 15 15 15 15 15 15 16 17 17 17 17 16 17 18 18 18 18 17 17 17 17 17 17
6 6 5 5 6 6 7 7 8 8 9 9 10 10 10 11 11 11 12 12 12 12 12 11 11 11 12 12 12 13 13 14 15 15 15 15 15 15 15 15 15 15 14 13 12 12 13 12 12 12 13 14 14 15 16 16 16 17 17 18 18 18 18 17 17 17 17 18 18
6 6 6 6 7 7 7 8 8 9 9 10 10 10 11 11 11 11 12 12 12 12 12 12 12 11 11 11 12 13 13 14 15 15 15 15 14 14 14 13 13 12 11 10 14 16 17 15 13 11 10 10 11 12 13 14 15 15 16 16 16 17 17 17 17 17 17 17 17
6 6 7 7 8 8 8 8 9 9 10 10 11 11 11 11 11 11 12 13 13 13 12 12 11 11 11 11 12 12 13 13 13 14 14 14 14 14 14 13 12 11 10 12 16 19 20 21 19 16 13 10 10 10 11 12 13 13 14 15 15 16 16 17 17 17 16 16 16
6 7 7 8 8 8 9 9 9 9 10 11 11 12 12 11 11 11 12 13 13 12 12 11 11 11 11 11 12 12 12 12 12 13 14 14 15 15 15 14 12 10 11 14 19 21 22 22 22 21 18 13 12 11 11 11 11 12 13 14 14 15 16 17 17 16 16 15 15
6 6 7 8 9 9 9 9 9 10 10 11 11 11 12 12 12 12 12 12 12 12 11 10 9 9 8 9 10 12 12 12 12 13 13 14 15 15 15 14 12 12 14 18 21 22 23 23 23 23 21 17 13 12 12 12 12 12 12 12 12 13 15 15 15 15 15 15 15
7 7 8 8 9 10 10 10 10 10 11 11 11 11 12 12 13 13 13 13 12 11 10 9 8 8 8 10 11 13 13 14 13 13 13 14 15 15 15 15 14 15 17 21 22 23 23 24 24 24 23 21 15 11 10 11 11 11 11 11 11 11 12 12 12 12 13 14 14
7 7 8 9 9 10 10 10 10 10 10 10 11 11 12 13 13 13 13 13 12 11 10 9 9 10 11 13 13 14 14 14 13 13 13 14 15 15 15 16 15 15 17 21 22 23 24 24 24 24 24 23 18 14 11 10 11 11 11 11 12 13 13 12 12 12 12 12 12
7 7 8 9 10 10 10 10 10 10 10 10 11 12 12 13 13 13 13 12 12 12 12 12 13 14 14 15 14 15 15 15 14 14 14 14 15 16 16 17 17 17 18 21 23 23 24 24 24 24 24 23 19 15 12 11 12 11 11 12 13 14 15 14 14 13 13 12 12
7 7 8 9 10 10 10 10 10 10 11 11 12 12 13 13 13 13 12 12 12 13 14 14 15 15 16 16 16 16 16 16 15 15 14 15 16 16 17 17 17 17 18 21 23 23 23 23 23 23 23 23 19 16 14 13 13 13 13 14 16 17 16 15 14 15 15 14 13
7 7 8 9 10 11 11 11 10 11 11 11 12 12 13 13 13 13 12 12 12 13 14 15 15 15 16 16 16 17 17 16 16 16 16 16 17 17 18 17 16 16 18 21 22 23 23 23 23 23 23 23 19 16 14 14 13 12 13 14 15 17 18 18 17 16 17 17 15
6 7 8 10 10 11 11 11 10 10 11 11 12 12 12 12 13 13 13 12 12 12 13 14 14 15 15 15 16 16 16 15 15 15 16 17 17 18 18 16 13 15 18 22 23 23 23 23 23 23 23 23 18 15 13 14 13 13 13 14 15 16 17 18 19 19 19 19 17
6 8 9 10 10 11 11 11 10 10 11 12 12 12 12 12 13 13 13 12 13 13 13 14 14 14 14 15 15 15 16 16 15 16 16 16 17 18 18 18 16 18 21 24 25 25 25 25 25 25 24 21 16 13 13 15 15 15 15 16 17 17 18 18 19 19 19 20 19
6 7 9 10 11 11 11 11 11 11 12 12 12 12 12 13 12 12 12 12 13 14 14 14 14 14 15 15 15 15 15 16 16 16 16 16 16 17 18 18 18 20 22 24 25 25 25 25 25 25 23 19 13 11 12 13 13 14 16 17 17 18 19 19 19 19 19 19 20
6 7 8 10 11 11 11 11 11 12 12 12 12 12 13 13 13 12 12 12 13 14 14 14 14 15 15 16 15 15 16 16 16 16 16 16 16 17 17 18 18 20 21 23 24 25 25 25 25 24 22 16 12 11 12 12 11 12 14 16 17 18 18 18 18 19 19 20 20
6 7 8 10 11 11 11 11 11 12 12 13 13 13 12 13 12 12 12 12 13 13 14 14 14 15 15 16 16 16 17 16 16 16 16 16 16 16 17 18 18 18 19 22 23 25 25 25 25 24 21 16 13 12 11 11 11 11 12 13 14 16 16 15 15 16 18 21 22
7 8 8 10 10 11 11 11 11 12 12 13 13 13 13 12 12 12 12 13 13 13 13 14 15 15 15 16 16 16 17 17 16 16 16 16 16 16 17 17 17 18 19 21 24 25 26 26 26 26 23 18 14 12 11 10 11 12 12 12 12 14 15 14 14 14 15 19 24
7 8 8 9 10 10 11 11 12 12 12 12 13 14 14 13 13 13 13 13 13 13 13 14 15 16 16 16 16 16 17 17 16 16 16 15 16 17 18 18 17 18 19 22 24 26 26 26 27 26 24 18 13 11 10 10 11 11 12 11 11 12 12 13 13 13 13 16 20
7 8 9 9 10 10 11 11 12 12 12 12 13 14 13 13 13 13 13 12 13 13 12 13 15 16 17 16 15 15 16 17 17 17 16 16 17 17 18 17 17 18 19 20 23 25 26 27 27 27 24 18 13 10 9 9 10 11 12 12 12 11 11 11 11 12 12 14 15
Wind_Direction
200 196 194 194 196 207 219 231 224 217 213 224 257 271 281 288 288 285 280 271 265 263 263 259 257 259 262 263 263 264 265 267 267 266 263 260 260 260 260 260 257 251 245 241 232 223 212 203 195 191 188 186 185 184 182 174 169 170 173 174 176 176 178 182 190 195 200 206 209
246 225 211 209 212 224 247 270 271 270 269 262 269 275 279 282 287 289 288 280 271 267 266 267 263 263 266 267 266 266 267 269 270 269 268 264 262 261 260 261 257 251 245 240 232 224 214 204 197 194 193 192 186 187 187 181 172 173 178 183 182 179 180 185 190 194 197 205 208
317 319 324 321 321 325 323 318 317 316 312 305 296 291 288 287 288 291 290 285 279 275 273 273 270 267 267 270 270 270 269 270 271 272 272 269 267 264 261 260 257 252 246 238 231 224 215 204 198 195 195 196 192 193 193 189 178 177 181 186 183 181 183 189 189 190 193 201 203
342 344 346 343 339 332 326 321 318 315 311 308 307 303 297 292 291 291 291 289 289 285 280 277 275 271 269 270 272 272 272 272 272 273 273 272 270 268 264 261 258 252 245 236 230 225 218 205 200 197 198 199 199 201 199 194 187 185 184 184 181 185 191 196 190 189 194 201 200
346 346 344 339 327 318 309 306 307 306 305 308 309 307 302 298 296 296 296 295 292 287 283 279 276 271 267 266 269 271 272 273 272 273 273 273 271 270 267 264 258 252 245 235 227 223 217 206 201 201 203 201 201 205 206 199 198 198 195 186 188 192 197 199 194 193 197 204 199
343 341 338 334 321 312 304 296 291 292 294 300 304 303 302 301 301 299 297 293 289 285 282 278 275 272 271 270 270 270 271 272 271 271 271 272 273 272 270 267 260 253 246 236 228 223 216 205 203 204 207 207 218 223 221 208 209 211 214 213 212 208 206 205 198 194 198 207 209
336 333 329 322 313 307 300 291 285 283 285 292 298 298 298 298 298 295 292 289 290 289 286 282 282 281 281 281 279 276 274 273 273 271 270 272 273 272 271 267 262 255 248 240 232 225 216 201 201 207 212 210 226 233 232 223 223 228 233 237 233 225 215 212 200 196 203 213 214
320 312 304 298 295 291 288 284 286 289 293 298 299 298 296 297 296 296 295 296 295 294 292 292 290 289 287 286 283 280 278 277 277 275 272 272 272 272 270 267 262 256 248 240 232 225 216 201 200 205 212 212 225 230 230 226 229 234 239 244 245 238 227 220 211 211 215 219 219
314 297 286 282 279 279 279 281 286 294 299 302 300 299 298 299 299 299 300 299 297 296 296 296 294 293 291 287 284 282 281 279 279 277 275 273 271 271 269 265 259 253 247 237 229 223 218 206 203 204 208 212 222 226 226 224 228 233 238 242 245 245 241 233 226 224 224 223 223
303 296 294 294 289 288 289 295 299 303 306 306 304 302 301 301 301 301 300 298 298 298 297 296 296 295 293 289 287 285 283 281 280 279 276 273 269 266 263 260 254 249 244 235 226 220 215 209 212 214 215 212 222 227 228 225 228 231 234 237 240 244 245 242 235 231 228 226 227
285 287 293 300 301 306 311 315 315 315 313 309 307 304 303 302 302 301 299 300 300 298 296 295 296 295 293 290 288 286 285 283 282 279 277 273 267 261 256 253 248 244 241 235 224 216 212 212 218 222 224 220 223 226 229 227 228 231 233 235 237 240 242 242 238 234 230 228 229
288 296 303 310 315 321 325 325 322 317 312 307 304 302 302 301 301 301 301 302 299 296 294 294 294 292 291 290 288 287 286 284 281 278 275 271 265 259 253 248 244 242 239 236 227 219 217 220 224 228 229 228 226 225 226 227 228 230 233 235 236 237 239 240 238 234 231 229 230
305 314 321 325 327 329 328 324 318 311 305 301 299 298 298 297 298 299 300 299 295 293 293 293 290 288 286 286 285 285 285 284 281 278 275 271 266 261 255 250 245 242 239 237 232 228 227 229 230 232 233 233 231 229 227 226 227 229 232 234 234 235 236 237 236 234 232 231 232
322 327 328 328 328 327 324 318 310 302 297 295 293 292 292 291 292 293 292 291 289 288 287 287 283 280 279 280 281 281 282 282 281 278 276 272 269 265 260 256 250 246 244 242 238 235 234 235 235 235 236 236 236 234 231 229 228 229 230 232 233 234 234 235 234 233 232 232 233
329 327 325 324 323 320 315 308 299 293 290 289 287 286 284 283 284 284 283 283 283 281 280 281 278 276 275 276 277 278 279 279 278 277 275 273 270 267 264 261 257 254 251 249 246 242 240 239 239 239 239 239 239 237 235 232 231 231 231 232 233 233 234 235 233 232 231 231 233
324 321 319 317 314 310 304 296 287 283 282 281 283 283 282 280 280 281 282 282 281 279 278 280 279 278 277 276 277 277 278 277 276 275 274 273 271 270 267 265 263 260 258 256 254 250 247 244 243 242 242 242 242 241 239 236 235 234 234 234 234 235 235 236 235 234 233 231 233
315 312 310 308 305 301 296 290 283 281 281 283 286 286 285 286 287 287 287 286 285 284 284 284 283 282 281 281 280 280 280 279 278 276 275 274 274 273 272 270 269 267 265 263 261 259 256 252 250 248 246 246 245 244 243 241 240 238 238 237 237 237 238 238 237 236 235 234 234
305 303 302 301 299 295 293 290 288 287 288 289 291 291 291 292 294 293 291 289 288 288 288 287 286 284 284 284 284 283 283 282 281 280 279 278 278 277 276 275 273 272 270 268 265 264 262 260 257 255 253 251 250 248 247 245 244 243 242 241 240 240 240 240 239 238 237 236 236
297 297 298 297 295 294 293 293 293 294 294 294 295 295 296 295 295 294 293 291 290 289 289 288 288 286 285 285 285 285 284 284 283 283 282 281 280 279 278 277 276 274 272 270 268 266 265 264 262 260 258 257 255 253 251 250 248 247 246 245 244 243 242 242 241 240 239 238 238
292 294 294 294 294 294 295 296 297 298 298 297 298 297 296 295 294 293 292 291 290 289 288 287 287 287 287 287 286 286 285 283 284 284 283 283 282 281 280 279 278 276 274 271 269 268 267 266 265 263 262 260 259 257 256 254 252 251 249 248 246 245 244 243 242 241 240 240 239
288 290 291 292 294 295 296 297 299 299 299 298 297 295 294 293 292 290 289 289 289 289 288 286 286 286 286 287 286 286 284 283 283 283 284 284 283 281 280 280 278 276 274 271 269 268 267 266 266 265 264 263 262 260 259 257 255 253 252 250 249 248 247 245 244 243 242 240 240
287 288 291 294 294 295 297 299 300 300 298 296 294 293 291 290 289 288 287 288 288 287 286 284 284 283 283 284 284 284 284 283 282 282 282 282 282 281 280 279 277 275 273 270 268 267 265 264 264 263 263 263 262 261 260 259 257 256 254 253 252 251 249 248 246 244 243 241 240
288 291 293 295 297 299 300 301 300 299 297 295 293 291 289 288 287 287 287 287 286 285 284 282 281 280 280 279 280 280 281 281 281 280 279 278 278 278 277 276 274 272 270 268 266 264 262 261 260 259 258 258 258 258 257 256 256 255 254 253 252 251 250 248 246 244 243 242 240
293 296 299 300 303 303 303 302 301 298 296 294 292 290 289 288 288 288 288 287 285 284 282 280 278 278 277 277 276 277 277 278 279 279 278 276 274 274 274 273 271 270 268 265 262 260 258 257 255 254 253 252 252 252 252 252 251 251 251 252 252 251 249 247 245 243 242 241 240
297 300 303 304 305 305 303 302 299 297 294 292 291 290 290 289 289 289 289 288 286 284 282 280 278 277 277 276 276 275 275 276 277 278 278 277 274 273 273 272 271 269 266 264 264 264 263 260 258 255 252 250 249 249 248 247 247 247 248 249 249 249 249 248 245 242 240 239 238
301 304 305 305 305 304 302 299 296 293 292 291 291 291 291 290 289 289 288 288 287 285 283 282 280 279 278 277 277 276 276 275 276 277 277 277 276 275 273 271 270 268 265 265 267 267 267 265 263 261 259 256 254 252 250 248 246 244 244 245 245 246 247 248 247 244 242 239 237
303 305 304 304 304 301 298 296 294 292 291 291 292 292 291 291 291 290 289 288 287 286 284 282 281 280 279 278 278 278 278 277 277 277 277 276 276 275 274 272 269 266 264 266 268 268 267 266 264 263 260 257 256 255 255 255 253 250 248 245 244 243 243 245 245 245 243 241 239
302 303 303 304 302 298 296 295 294 293 292 292 291 291 291 292 292 291 290 289 288 288 286 284 283 281 280 279 280 281 281 280 279 278 276 275 274 273 272 271 269 267 266 268 269 269 268 267 265 264 261 258 256 255 255 257 257 256 254 251 248 244 242 241 240 240 240 240 239
298 300 301 301 298 296 296 295 294 293 292 291 291 292 292 293 293 292 292 291 291 290 289 288 287 285 284 284 285 285 285 283 280 278 276 275 274 273 272 272 272 271 272 272 272 271 270 268 267 266 264 261 258 253 250 251 252 253 253 254 252 250 247 243 239 236 234 234 233
297 298 297 296 295 295 295 294 292 292 291 291 292 294 294 294 294 294 294 294 292 291 290 290 290 289 287 287 288 287 286 284 282 280 278 277 277 276 276 276 276 276 276 275 274 273 272 271 269 268 266 264 260 256 252 249 249 248 249 249 251 252 253 253 249 243 236 230 228
294 295 295 294 294 293 293 292 292 292 292 292 294 294 294 294 294 294 294 294 293 292 291 292 291 289 288 288 288 288 287 286 285 283 281 280 280 280 280 280 279 278 278 277 276 275 274 273 272 270 268 266 262 258 253 251 249 247 246 246 248 249 251 253 253 251 246 240 234
292 293 293 294 293 292 292 293 293 294 294 294 294 293 293 292 292 292 293 293 292 293 293 293 292 292 291 291 290 289 288 288 286 285 284 283 282 282 282 281 280 279 278 278 277 276 275 274 272 271 269 267 263 259 255 252 250 248 246 246 247 247 247 248 249 250 250 249 244
291 292 293 293 293 293 294 295 295 295 294 294 292 292 291 291 292 292 293 292 292 293 293 293 293 293 293 293 292 291 289 287 286 285 285 284 284 283 282 281 279 279 278 278 278 277 276 275 274 272 271 268 265 260 256 253 251 248 246 245 244 244 244 243 244 246 247 247 246
290 292 293 293 294 294 295 296 295 295 294 293 292 291 291 292 293 293 294 294 293 292 291 291 291 291 290 290 290 289 288 286 285 284 284 284 284 283 282 281 279 279 280 280 280 279 278 276 275 274 272 270 266 261 256 253 251 248 246 245 244 242 241 240 241 241 242 243 243
291 294 295 295 295 296 296 297 296 296 295 294 293 293 292 291 291 291 292 293 293 292 291 290 289 289 288 288 287 286 286 285 284 283 283 283 283 282 281 280 279 280 281 281 281 280 278 277 276 274 272 270 265 259 254 253 250 248 245 244 244 242 240 239 239 239 239 239 239
291 293 294 295 295 296 297 297 298 298 297 296 295 294 293 292 291 290 291 293 293 292 291 290 289 289 288 288 287 285 284 284 284 283 282 282 282 281 281 280 280 280 281 282 281 280 279 277 276 274 272 269 262 255 251 250 249 246 244 243 242 240 239 238 237 237 236 236 235
289 291 292 294 295 296 297 298 299 298 298 296 295 293 293 292 292 291 292 294 293 292 291 289 289 288 288 288 287 286 284 284 284 283 283 282 281 280 280 280 280 280 281 282 281 280 279 277 276 274 272 267 259 253 250 248 246 244 242 240 240 238 237 237 236 235 235 233 233
290 290 292 293 294 295 296 297 297 297 296 295 294 293 292 292 291 292 293 294 293 292 291 289 288 287 287 287 287 286 285 284 283 283 283 282 281 280 279 280 280 280 281 281 281 280 279 278 277 275 272 266 259 254 251 248 245 242 240 238 238 236 234 233 232 232 232 231 231
291 291 291 292 293 294 295 295 294 294 294 294 294 293 293 292 291 291 292 292 291 289 289 288 288 288 288 288 288 287 286 285 284 283 283 282 282 281 280 280 280 280 280 281 281 280 280 279 278 276 274 268 261 255 251 248 246 244 241 238 238 236 233 231 229 229 229 229 230
291 292 291 291 291 291 292 292 291 291 291 292 293 293 293 292 291 291 291 291 290 288 287 286 288 288 289 289 289 288 287 287 286 286 285 284 283 283 283 281 280 280 280 280 280 279 279 278 277 276 274 269 261 254 250 247 246 244 242 239 238 236 233 229 227 226 227 227 227
292 292 291 289 288 289 289 290 290 290 290 290 290 290 291 291 290 291 291 291 290 289 287 286 288 289 290 291 290 289 289 289 289 289 288 287 285 284 283 281 280 279 278 277 277 277 276 276 275 274 273 268 261 254 249 246 246 245 243 241 238 237 234 231 227 225 224 223 223